Location: ActonStarParty
(42.4766°N, 71.4538°W)
Time: 14:19:55
(UTC-04:00)

ATLAS 5 CENTAUR R/B - Visible Passes

Search period start: 23 September 2014 00:00
Search period end: 03 October 2014 00:00
Orbit: 325 x 15030 km, 60.8° (Epoch: 03 February)

Date Brightness Start Highest point End Pass type
(mag) Time Alt. Az. Time Alt. Az. Time Alt. Az.
23 Sep 8.5 00:10:55 15° SSE 01:54:31 58° E 02:42:09 10° NE visible
23 Sep 7.5 04:58:33 10° SW 07:06:55 58° NNW 07:30:05 10° NE visible
23 Sep 8.6 23:12:07 12° SE 00:43:39 42° E 01:29:29 10° NE visible
24 Sep 7.8 03:47:51 18° SW 05:47:19 69° NW 06:18:44 10° NE visible
24 Sep 8.6 22:22:32 10° ESE 23:35:14 28° E 00:14:57 10° NE visible
25 Sep 8.0 02:45:39 28° SSW 04:28:03 83° NW 05:07:22 10° NE visible
25 Sep 8.7 21:53:21 10° E 22:29:12 15° ENE 22:54:21 10° NE visible
26 Sep 8.2 01:42:33 33° S 03:10:48 81° ESE 03:55:51 10° NE visible
27 Sep 8.3 00:38:54 33° SSE 01:56:10 64° ESE 02:44:01 10° NE visible
27 Sep 7.3 05:14:10 12° WSW 07:11:21 55° NNW 07:31:45 10° ENE visible
27 Sep 8.5 23:34:49 27° SE 00:44:09 48° E 01:31:33 10° NE visible
28 Sep 7.7 04:09:58 25° SW 05:51:48 64° NW 06:20:11 10° NE visible
28 Sep 8.5 22:30:24 18° ESE 23:34:38 33° E 00:17:44 10° NE visible
29 Sep 7.9 03:05:26 36° SSW 04:31:47 77° NW 05:08:36 10° NE visible
29 Sep 8.6 21:34:35 10° E 22:27:32 20° ENE 23:00:25 10° NE visible
30 Sep 8.1 02:00:36 43° S 03:13:18 87° ESE 03:56:56 10° NE visible
01 Oct 8.2 00:55:31 44° SSE 01:57:23 71° ESE 02:45:02 10° NE visible
01 Oct 7.1 05:30:31 14° WSW 07:14:44 52° NNW 07:32:38 10° ENE visible
01 Oct 8.4 23:50:10 38° SE 00:44:12 54° E 01:32:38 10° NE visible
02 Oct 7.5 04:25:06 27° WSW 05:55:27 60° NNW 06:20:52 10° NE visible
02 Oct 8.4 22:44:36 28° ESE 23:33:36 39° E 00:00:00 31° ENE visible
